User: anonymous   Login
Location: Caltech
(34.1382°N, 118.1253°W)
Time: 13:42:31
(UTC-07:00)
Language:

ASTRO E2 - Orbit

View from above orbital plane
View from above orbital plane
View from above satellite
View from above satellite

Ground track
Ground track

The orbit data is extracted from the following two-line orbital elements,

1 28773U 05025A   17177.28005919 +.00000827 +00000-0 +37785-4 0  9997
2 28773 031.3821 237.4671 0004669 077.6202 282.4967 15.15835631658753
Epoch (UTC): 26 June 2017 06:43:17
Eccentricity: 0.0004669
inclination: 31.3821°
perigee height: 515 km
apogee height: 521 km
right ascension of ascending node: 237.4671°
argument of perigee: 77.6202°
revolutions per day: 15.15835631
mean anomaly at epoch: 282.4967°
orbit number at epoch: 65875

The dashed part of the orbit path shows where the satellite is in the earth's shadow,  

DLR